Terminal Aerodrome Forecast
Issued by NWS

Home | Current Version | Previous Version | Text Only | Print | Product List | Glossary On
Versions: 1 2 3 4 5 6 7 8 9 10 11 12 13 14 15 16 17 18 19 20 21
225
FTUS45 KFGZ 011735
TAFSEZ
TAF
KSEZ 011735Z 0118/0218 03008KT P6SM SCT035 OVC050
      TEMPO 0118/0122 -SHRA BKN050
     FM020300 06009KT P6SM BKN080=

USA.gov is the U.S. government's official web portal to all federal, state and local government web resources and services.